Location: Ecklingerode
(51.5036°N, 10.3122°E)
Time: 00:32:01
(UTC+00:00)

SeaSat 1 - Pass Details

Date: 29 October 2020
Orbit: 744 x 747 km, 108.0° (Epoch: 23 November)

Event Time Altitude Azimuth Distance (km) Brightness Sun altitude
Exits shadow 19:40:26 29° 266° (W) 1,348 4.1 -34.8°
Drops below altitude 10° 19:44:05 10° 312° (NW) 2,274 5.7 -35.4°
Sets 19:46:38 0° 323° (NW) 3,204 6.5 -35.7°
